Location: Jackson
(42.2460°N, 84.4010°W)
Time: 07:26:34
(UTC-05:00)

Tiangong - Visible Passes

Search period start: 16 January 2026 00:00
Search period end: 26 January 2026 00:00
Orbit: 378 x 394 km, 41.5° (Epoch: 16 January)

Date Brightness Start Highest point End Pass type
(mag) Time Alt. Az. Time Alt. Az. Time Alt. Az.
16 Jan 0.9 06:42:48 10° S 06:44:34 14° SSE 06:46:19 10° ESE visible
17 Jan -0.5 07:18:55 10° SW 07:21:50 34° SSE 07:24:47 10° E visible
18 Jan 0.1 06:20:53 14° SSW 06:22:43 22° SSE 06:25:18 10° E visible
19 Jan 1.2 05:24:53 12° ESE 05:24:53 12° ESE 05:25:28 10° ESE visible
19 Jan -1.3 06:57:09 11° WSW 07:00:04 49° SSE 07:03:11 10° E visible
20 Jan -0.8 06:00:58 34° SSE 06:00:58 34° SSE 06:03:47 10° E visible
21 Jan -1.9 06:36:53 30° WSW 06:38:14 66° S 06:41:25 10° E visible
22 Jan 0.2 05:40:27 25° E 05:40:27 25° E 05:42:01 10° E visible
22 Jan -2.1 07:12:41 11° W 07:15:42 79° S 07:18:54 10° E visible
23 Jan -2.2 06:16:09 74° SW 06:16:19 77° S 06:19:30 10° E visible
24 Jan 1.2 05:19:35 14° E 05:19:35 14° E 05:20:06 10° E visible
24 Jan -2.0 06:51:48 21° W 06:53:44 71° S 06:56:55 10° ESE visible
25 Jan -1.0 05:55:11 44° ESE 05:55:11 44° ESE 05:57:30 10° E visible
